User: anonymous   Login
Location: Unspecified
(0.0000°N, 0.0000°E)
Time: 00:06:02
(UTC+00:00)
Language:

CFESAT - Orbit

View from above orbital plane
View from above orbital plane
View from above satellite
View from above satellite

Ground track
Ground track

The orbit data is extracted from the following two-line orbital elements,

1 30777U 07006F   18112.50193089 +.00004315 +00000-0 +13344-3 0  9996
2 30777 035.4263 287.8203 0006681 266.0112 093.9850 15.33006608615477
Epoch (UTC): 22 April 2018 12:02:46
Eccentricity: 0.0006681
inclination: 35.4263°
perigee height: 462 km
apogee height: 471 km
right ascension of ascending node: 287.8203°
argument of perigee: 266.0112°
revolutions per day: 15.33006608
mean anomaly at epoch: 93.9850°
orbit number at epoch: 61547

The dashed part of the orbit path shows where the satellite is in the earth's shadow,  

DLR